Regional Weather Roundup
Issued by NWS

Home | Current Version | Previous Version | Graphics & Text | Print | Product List | Glossary On
Versions: 1 2 3 4 5 6 7 8 9 10 11 12 13 14 15 16 17 18 19 20 21 22 23 24 25 26 27 28 29 30 31 32 33 34 35 36 37 38 39 40 41 42 43 44 45 46 47 48 49 50
000
ASUS43 KBIS 252101
RWRND

NORTH DAKOTA REGIONAL WEATHER ROUNDUP
NATIONAL WEATHER SERVICE BISMARCK ND
300 PM CST SUN JAN 25 2015

NOTE: "FAIR" INDICATES FEW OR NO CLOUDS BELOW 12,000 FEET WITH NO
SIGNIFICANT WEATHER AND/OR OBSTRUCTIONS TO VISIBILITY.


NDZ001>003-009>011-017-252200-
NORTHWEST NORTH DAKOTA

CITY           SKY/WX    TMP DP  RH WIND       PRES   REMARKS
WILLISTON      PTSUNNY   41  31  67 S7        29.86F
MINOT          CLOUDY    34  29  82 SW8       29.87F
MINOT AFB      CLOUDY    32  32 100 SW7       29.87F
$$

NDZ018>021-031>035-040>046-252200-
SOUTHWEST NORTH DAKOTA

CITY           SKY/WX    TMP DP  RH WIND       PRES   REMARKS
BISMARCK       CLOUDY    37  32  82 W3        29.94F
DICKINSON      CLOUDY    42  30  62 S9        29.87F
GARRISON         N/A     35  31  85 SW6       29.89F
HETTINGER ARPT PTSUNNY   46  27  47 W8        29.93F
$$

NDZ004>008-012>016-024-026-027-054-252200-
NORTHEAST NORTH DAKOTA

CITY           SKY/WX    TMP DP  RH WIND       PRES   REMARKS
GRAND FORKS    CLOUDY    24  14  65 S5        29.98F WCI  18
GRND FRKS AFB  CLOUDY    26  16  67 SW7       29.97F WCI  18
DEVILS LAKE    CLOUDY    23  19  86 SW9       29.92F WCI  13
$$

NDZ022-023-025-028>030-036>039-047>053-252200-
SOUTHEAST NORTH DAKOTA

CITY           SKY/WX    TMP DP  RH WIND       PRES   REMARKS
FARGO          MOSUNNY   26  16  65 CALM      30.02F
JAMESTOWN      CLOUDY    27  22  81 SW5       29.95F
$$



USA.gov is the U.S. government's official web portal to all federal, state and local government web resources and services.